Brno, Czech Republic

8:58 PM CEST on October 19, 2017 (GMT +0200)
Turany

Weather History for LKTB - May, 2013

Change the Weather History Date:

Wednesday, May 15, 2013

  Actual Average Record
Temperature  
Mean Temperature 57 °F -  
Max Temperature 70 °F 70 °F - ()
Min Temperature 44 °F 50 °F - ()
Degree Days  
Heating Degree Days 8    
Growing Degree Days 7 (Base 50)    
Moisture  
Dew Point 48 °F    
Average Humidity 65    
Maximum Humidity 93    
Minimum Humidity 39    
Precipitation  
Precipitation 0.00 in 0.09 in - ()
Sea Level Pressure  
Sea Level Pressure 29.78 in    
Wind  
Wind Speed 8 mph ()    
Max Wind Speed 20 mph    
Max Gust Speed -    
Visibility 9.2 miles    
Events      
T = Trace of Precipitation, MM = Missing Value Source: Averaged Metar Reports

Daily Weather History Graph

Daily Weather History Graph

Search for Another Location

Airport or City:

Trip Planner

Search our weather history database for the weather conditions in past years. The results will help you decide how hot, cold, wet, or windy it might be!

Date:

Astronomy

May. 15, 2013 Rise Set
Actual Time 5:10 AM CEST 8:29 PM CEST
Civil Twilight 4:32 AM CEST 9:08 PM CEST
Nautical Twilight 3:41 AM CEST 9:58 PM CEST
Astronomical Twilight 2:35 AM CEST 11:05 PM CEST
Moon 9:33 AM CEST (5/15) 12:02 AM CEST (5/15)
Length of Visible Light 16h 35m
Length of Day
15h 19m
Waxing Crescent, 24% of the Moon is Illuminated
May 15
Waxing Crescent
May 18
First Quarter
May 25
Full
May 31
Last Quarter
Jun 8
New

Hourly Weather History & Observations

Time (CEST) Temp. Windchill Dew Point Humidity Pressure Visibility Wind Dir Wind Speed Gust Speed Precip Events Conditions
12:00 AM 51.8 °F - 44.6 °F 76% 29.86 in - ENE 8.1 mph - N/A   Clear
12:30 AM 51.8 °F - 42.8 °F 71% 29.86 in - ENE 5.8 mph - N/A   Clear
1:00 AM 50.0 °F - 42.8 °F 76% 29.86 in - East 2.3 mph - N/A   Clear
1:30 AM 50.0 °F - 42.8 °F 76% 29.86 in - ENE 2.3 mph - N/A   Clear
2:00 AM 50 °F - 43 °F 69% 29.88 in 19 mi NE 6.7 mph - -   Clear
2:00 AM 50.0 °F - 42.8 °F 76% 29.86 in - NE 3.5 mph - N/A   Clear
2:30 AM 50.0 °F - 42.8 °F 76% 29.86 in - NNE 2.3 mph - N/A   Clear
3:00 AM 50.0 °F - 42.8 °F 76% 29.86 in - Variable 1.2 mph - N/A   Clear
3:30 AM 48.2 °F - 42.8 °F 82% 29.83 in - Variable 1.2 mph - N/A   Clear
4:00 AM 48.2 °F - 42.8 °F 82% 29.83 in - ENE 4.6 mph - N/A   Clear
4:30 AM 48.2 °F - 42.8 °F 82% 29.83 in - NE 4.6 mph - N/A   Clear
5:00 AM 46.4 °F 44.3 °F 42.8 °F 87% 29.83 in - ENE 4.6 mph - N/A   Clear
5:30 AM 44.6 °F 41.4 °F 42.8 °F 93% 29.83 in - ENE 5.8 mph - N/A   Clear
6:00 AM 46.4 °F 42.9 °F 42.8 °F 87% 29.83 in - ENE 6.9 mph - N/A   Clear
6:30 AM 48.2 °F - 44.6 °F 87% 29.83 in - ENE 6.9 mph - N/A   Clear
7:00 AM 51.8 °F - 46.4 °F 82% 29.83 in - ENE 6.9 mph - N/A   Clear
7:30 AM 53.6 °F - 46.4 °F 77% 29.83 in - ENE 11.5 mph - N/A   Clear
8:00 AM 55 °F - 48 °F 70% 29.83 in 19 mi East 11.2 mph - -   Clear
8:00 AM 55.4 °F - 48.2 °F 77% 29.83 in - ENE 11.5 mph - N/A   Clear
8:30 AM 57.2 °F - 48.2 °F 72% 29.83 in - ENE 10.4 mph - N/A   Clear
9:00 AM 59.0 °F - 50.0 °F 72% 29.83 in - East 9.2 mph - N/A   Clear
9:30 AM 60.8 °F - 48.2 °F 63% 29.83 in - SE 11.5 mph - N/A   Clear
10:00 AM 62.6 °F - 50.0 °F 63% 29.83 in - ESE 12.7 mph - N/A   Clear
10:30 AM 64.4 °F - 50.0 °F 59% 29.80 in 6.2 mi ESE 15.0 mph - N/A   Partly Cloudy
11:00 AM 64.4 °F - 48.2 °F 56% 29.80 in 6.2 mi SE 16.1 mph - N/A   Partly Cloudy
11:30 AM 66.2 °F - 48.2 °F 52% 29.80 in 6.2 mi SE 17.3 mph - N/A   Partly Cloudy
12:00 PM 66.2 °F - 50.0 °F 56% 29.80 in 6.2 mi SE 18.4 mph - N/A   Partly Cloudy
12:30 PM 68.0 °F - 50.0 °F 52% 29.77 in 6.2 mi ESE 19.6 mph - N/A   Partly Cloudy
1:00 PM 68.0 °F - 50.0 °F 52% 29.77 in 6.2 mi SE 18.4 mph - N/A   Scattered Clouds
1:30 PM 68.0 °F - 50.0 °F 52% 29.77 in 6.2 mi SE 17.3 mph - N/A   Scattered Clouds
2:00 PM 69 °F - 49 °F 39% 29.75 in 22 mi ESE 17.9 mph - -   Partly Cloudy
2:00 PM 69.8 °F - 50.0 °F 49% 29.77 in 6.2 mi SE 17.3 mph - N/A   Scattered Clouds
2:30 PM 68.0 °F - 50.0 °F 52% 29.74 in 6.2 mi SE 17.3 mph - N/A   Scattered Clouds
3:00 PM 68.0 °F - 48.2 °F 49% 29.74 in 6.2 mi SE 16.1 mph - N/A   Mostly Cloudy
3:30 PM 68.0 °F - 50.0 °F 52% 29.74 in - SE 16.1 mph - N/A   Clear
4:00 PM 69.8 °F - 50.0 °F 49% 29.74 in - SE 16.1 mph - N/A   Clear
4:30 PM 69.8 °F - 50.0 °F 49% 29.71 in - SE 16.1 mph - N/A   Clear
5:00 PM 69.8 °F - 50.0 °F 49% 29.71 in - SE 17.3 mph - N/A   Clear
5:30 PM 68.0 °F - 50.0 °F 52% 29.71 in - SE 17.3 mph - N/A   Clear
6:00 PM 69.8 °F - 50.0 °F 49% 29.71 in - SE 13.8 mph - N/A   Clear
6:30 PM 69.8 °F - 50.0 °F 49% 29.71 in - SE 11.5 mph - N/A   Clear
7:00 PM 68.0 °F - 50.0 °F 52% 29.71 in - SE 15.0 mph - N/A   Clear
7:30 PM 66.2 °F - 50.0 °F 56% 29.71 in - SE 12.7 mph - N/A   Clear
8:00 PM 65 °F - 49 °F 45% 29.70 in 19 mi ESE 8.9 mph - -   Scattered Clouds
8:00 PM 66.2 °F - 50.0 °F 56% 29.71 in - ESE 11.5 mph - N/A   Clear
8:30 PM 62.6 °F - 50.0 °F 63% 29.71 in - ESE 9.2 mph - N/A   Clear
9:00 PM 60.8 °F - 50.0 °F 68% 29.71 in - East 10.4 mph - N/A   Clear
9:30 PM 60.8 °F - 50.0 °F 68% 29.71 in - East 11.5 mph - N/A   Clear
10:00 PM 60.8 °F - 50.0 °F 68% 29.71 in - East 9.2 mph - N/A   Clear
10:30 PM 59.0 °F - 50.0 °F 72% 29.71 in - ESE 9.2 mph - N/A   Clear
11:00 PM 60.8 °F - 50.0 °F 68% 29.71 in - ESE 9.2 mph - N/A   Clear
11:30 PM 59.0 °F - 50.0 °F 72% 29.71 in - ESE 8.1 mph - N/A   Clear